Location: Cabeza de los Veneras
(40.2000°N, 5.2000°W)
Time: 05:32:15
(UTC+00:00)

Cosmos 1844 Rocket - Pass Details

Date: 30 July 2024
Orbit: 822 x 844 km, 71.0° (Epoch: 08 July)

Event Time Altitude Azimuth Distance (km) Brightness Sun altitude
Rises 04:00:48 0° 328° (NNW) 3,384 5.9 -13.2°
Reaches altitude 10° 04:03:23 10° 321° (NW) 2,450 5.1 -12.8°
Maximum altitude 04:08:32 39° 255° (WSW) 1,245 3.1 -12.1°
Drops below altitude 10° 04:13:42 10° 188° (S) 2,448 4.7 -11.3°
Sets 04:16:16 0° 181° (S) 3,381 5.5 -10.9°
